STARLINK-31121 (58685 NORAD) Tracking and Keplerian Element Data

This shows tracking and keplerian element data for the satellite.

Feedback or suggestion? Click here.




ElementValue
Catalog58685
NameSTARLINK-31121
Epoch Orbit336
Epoch Day12.91667824
Epoch Year2024
RAAN204.0718
Inclination43.0002
Eccentricity0.0001843
Argument of Perigee281.8487
Mean Anonmoly325.5465
Mean Motion15.7409686
Decay Rate-0.01642641
L11 58685U 23211U 24012.91667824 -.01642641 00000+0 -12554-1 0 9996
L22 58685 43.0002 204.0718 0001843 281.8487 325.5465 15.74096860 3367



Live tracking and technical data element details for STARLINK-31121 (NORAD 58685). STARLINK-31121 can be tracked NOW for your location showing map with azimuth and elevation plus other details from your city location.







IsCatalogInMostPopularTable: catalog: 58685, numindb: 22
Update: records affected: 1



GetName: 58685 STARLINK-31121

Hit Count: updated at: Wed, 17 Apr 2024 03:24:01 GMT